Flag for Norway Weather past 2 weeks in Fauske, Norway

Now
57 °F

Partly sunny.


Feels Like: 56 °F
Forecast: 51 / 68 °F
Wind: 6 mph from West

Location: Bodo Vi

Current Time: Aug 21, 2014 at 6:16:10 PM

Latest Report: Aug 21, 2014 at 5:20 PM


Visibility: N/A

Pressure: 29.59 "Hg

Humidity: 77%

Dew point: 50 °F

Location of FauskeLocation

Historic Weather in Fauske — Graph

°F

Fauske temperature yesterday

Maximum temperature yesterday: 64 °F (at 2:20 PM)
Minimum temperature yesterday: 54 °F (at 12:50 AM)
Average temperature yesterday: 59 °F

Past Weeks' High & Low Weather Summary

 TemperatureHumidityPressure
High73 °F (Aug 11, 2:50 PM)100% (Aug 6, 4:20 PM)29.98 "Hg (Aug 6, 4:20 PM)
Low45 °F (Aug 17, 5:20 AM)47% (Aug 11, 4:50 PM)29.36 "Hg (Aug 12, 4:50 PM)
Average58 °F79%29.62 "Hg
* Reported Aug 6 4:20 PM — Aug 21 4:50 PM, Fauske, Weather by CustomWeather, © 2014

Note: Actual official high and low records may vary slightly from our data, if they occured in-between our weather recording intervals... More about our weather records

Advertising

Fauske weather history for previous 24 hours

 ConditionsComfort  
Time TempWeatherWind HumidityBarometerVisibility
4:50 PM
Aug 21
57 °FPartly sunny.6 mph77%29.59 "HgN/A
4:20 PM57 °FPartly sunny.6 mph82%29.59 "HgN/A
3:50 PM57 °FPartly sunny.7 mph82%29.59 "HgN/A
3:20 PM57 °FPartly sunny.6 mph88%29.59 "HgN/A
2:50 PM57 °FPartly sunny.7 mph88%29.59 "HgN/A
2:20 PM57 °FPartly sunny.8 mph82%29.59 "HgN/A
1:50 PM57 °FPartly sunny.9 mph82%29.59 "HgN/A
1:20 PM59 °FPartly sunny.6 mph72%29.59 "HgN/A
12:50 PM61 °FPartly sunny.9 mph63%29.56 "HgN/A
12:20 PM61 °FPartly sunny.13 mph63%29.56 "HgN/A
11:50 AM61 °FScattered clouds.14 mph63%29.56 "HgN/A
11:20 AM61 °FScattered clouds.16 mph63%29.53 "HgN/A
10:50 AM61 °FScattered clouds.17 mph63%29.53 "HgN/A
10:20 AM61 °FScattered clouds.17 mph63%29.53 "HgN/A
9:50 AM59 °FScattered clouds.15 mph68%29.53 "HgN/A
9:20 AM59 °FScattered clouds.15 mph68%29.53 "HgN/A
8:50 AM57 °FScattered clouds.13 mph72%29.53 "HgN/A
8:20 AM57 °FPartly sunny.14 mph72%29.50 "HgN/A
7:50 AM57 °FPartly sunny.14 mph67%29.50 "HgN/A
7:20 AM57 °FPartly sunny.14 mph67%29.50 "HgN/A
6:50 AM57 °FPartly sunny.15 mph67%29.50 "HgN/A
6:20 AM57 °FPartly sunny.15 mph67%29.50 "HgN/A
5:50 AM57 °FPartly sunny.16 mph67%29.50 "HgN/A
5:20 AM57 °FClear.16 mph67%29.50 "Hg10 mi
4:50 AM57 °FClear.15 mph67%29.50 "Hg10 mi
3:50 AM57 °FClear.14 mph72%29.50 "Hg10 mi
2:50 AM57 °FClear.15 mph72%29.47 "Hg10 mi
1:50 AM57 °FClear.13 mph72%29.47 "Hg10 mi
12:50 AM55 °FClear.13 mph82%29.47 "Hg10 mi
11:50 PM
Aug 20
57 °FClear.13 mph77%29.47 "Hg10 mi
11:20 PM55 °FClear.9 mph82%29.47 "Hg10 mi
10:50 PM57 °FClear.7 mph77%29.47 "Hg10 mi
10:20 PM55 °FSunny.3 mph82%29.47 "Hg10 mi
9:50 PM55 °FSunny.2 mph82%29.47 "Hg10 mi
9:20 PM55 °FScattered clouds.2 mph82%29.47 "HgN/A
8:50 PM55 °FScattered clouds.3 mph82%29.47 "HgN/A
8:20 PM55 °FScattered clouds.6 mph82%29.47 "HgN/A
7:50 PM57 °FScattered clouds.2 mph77%29.45 "HgN/A
7:20 PM59 °FScattered clouds.5 mph72%29.47 "HgN/A
6:50 PM59 °FScattered clouds.6 mph72%29.45 "HgN/A
6:20 PM61 °FScattered showers. Partly sunny.8 mph68%29.45 "HgN/A
Weather by CustomWeather, © 2014

See weather overviewHow to use our weather pages